This is the latest recevied weather packets stored in our database for station/object AE5HO. If no packets are shown the sender has not sent any weather packets the latest 10 day(s).
| Time | Temp. | Humidity | Pressure | Rain* | Wind** | Luminosity | Snow |
|---|---|---|---|---|---|---|---|
| 1787611470 | 42.22° C | 26% | 1011.1 hPa | 0 mm | - | 35 W/m² | - |
| 1787611165 | 42.22° C | 26% | 1011.2 hPa | 0 mm | - | 35 W/m² | - |
| 1787610861 | 42.22° C | 26% | 1011.3 hPa | 0 mm | - | 35 W/m² | - |
| 1787610556 | 42.78° C | 26% | 1011.3 hPa | 0 mm | - | 39 W/m² | - |
| 1787610251 | 42.78° C | 26% | 1011.3 hPa | 0 mm | - | 35 W/m² | - |
| 1787609950 | 42.78° C | 26% | 1011.4 hPa | 0 mm | - | 37 W/m² | - |
| 1787609650 | 42.78° C | 26% | 1011.5 hPa | 0 mm | - | 37 W/m² | - |
| 1787609345 | 42.78° C | 26% | 1011.5 hPa | 0 mm | - | 37 W/m² | - |
| 1787609044 | 42.22° C | 26% | 1011.4 hPa | 0 mm | - | 37 W/m² | - |
| 1787608739 | 42.22° C | 26% | 1011.5 hPa | 0 mm | - | 37 W/m² | - |
| 1787608438 | 42.22° C | 27% | 1011.4 hPa | 0 mm | - | 37 W/m² | - |
| 1787608135 | 42.22° C | 28% | 1011.6 hPa | 0 mm | - | 37 W/m² | - |
| 1787607831 | 42.22° C | 27% | 1011.6 hPa | 0 mm | - | 38 W/m² | - |
| 1787607528 | 42.22° C | 28% | 1011.6 hPa | 0 mm | - | 37 W/m² | - |
| 1787607225 | 42.78° C | 27% | 1011.5 hPa | 0 mm | - | 38 W/m² | - |
| 1787606920 | 42.22° C | 27% | 1011.5 hPa | 0 mm | - | 38 W/m² | - |
| 1787606618 | 42.78° C | 28% | 1011.8 hPa | 0 mm | - | 56 W/m² | - |
| 1787606313 | 42.22° C | 27% | 1011.7 hPa | 0 mm | - | 39 W/m² | - |
| 1787606008 | 42.22° C | 27% | 1011.8 hPa | 0 mm | - | 37 W/m² | - |
| 1787605707 | 42.22° C | 29% | 1011.7 hPa | 0 mm | - | 38 W/m² | - |
| 1787605402 | 42.22° C | 28% | 1011.8 hPa | 0 mm | - | 39 W/m² | - |
| 1787605098 | 41.67° C | 28% | 1012.1 hPa | 0 mm | - | 39 W/m² | - |
| 1787604797 | 41.67° C | 28% | 1012 hPa | 0 mm | - | 39 W/m² | - |
| 1787604493 | 41.67° C | 28% | 1012.4 hPa | 0 mm | - | 40 W/m² | - |
| 1787604192 | 41.67° C | 28% | 1012.3 hPa | 0 mm | - | 40 W/m² | - |
* Rain latest hour (hover to see other rain measurements)
** Current wind speed in m/s (hover to see current wind gust speed)